Retour au catalogue

STARLINK-2659

ActifCommunicationsVLEO
NORAD 48467·PAYLOAD·🇺🇸 United States

Lancé May 9, 2021 depuis Cape Canaveral Space Force Station

Loading…

Prochains Passages (prochaines 24 heures)

TLE

FraisSource: CelesTrak SupGP

Époque: Sep 14, 2026, 21:14 UTC

1 48467C 21040AR  26257.88520833  .00030416  00000+0  97771-3 0  2579
2 48467  53.1599  30.5233 0001143  84.2969  83.8883 15.31700029    13

Suivez STARLINK-2659 en temps réel avec AllMySat

Download on the App Store